Regional Weather Roundup
Issued by NWS

Home | Current Version | Previous Version | Graphics & Text | Print | Product List | Glossary Off
Versions: 1 2 3 4 5 6 7 8 9 10 11 12 13 14 15 16 17 18 19 20 21 22 23 24 25 26 27 28 29 30 31 32 33 34 35 36 37 38 39 40 41 42 43 44 45 46 47 48 49 50

000
ASUS43 KLSX 191407
RWRMO

WEATHER SUMMARY FOR MISSOURI
NATIONAL WEATHER SERVICE SPRINGFIELD MO
900 AM CDT SAT APR 19 2014

NOTE: "FAIR" INDICATES FEW OR NO CLOUDS BELOW 12,000 FEET WITH NO
       SIGNIFICANT WEATHER AND/OR OBSTRUCTIONS TO VISIBILITY.
       CURRENT SKY AND/OR WEATHER CONDITIONS ARE NOT AVAILABLE FOR
       CHILLICOTHE AND FARMINGTON.

MOZ001>031-035>038-043-044-053-054-191500-
...NORTHERN AND WESTERN MISSOURI...

CITY           SKY/WX    TMP DP  RH WIND       PRES   REMARKS
KANSAS CTY INT MOSUNNY   60  43  53 S10       30.16R
KANSAS C DTWN  MOSUNNY   63  43  48 S10       30.16S
LEE`S SUMMIT   SUNNY     60  43  53 S13       30.18R
ST JOSEPH      MOSUNNY   61  42  49 S10       30.15S
CHILLICOTHE      N/A     59  42  53 S13G22    30.19F
KIRKSVILLE     SUNNY     56  40  55 SE15      30.23F

$$
MOZ066>068-077>081-088>096-101>105-191500-
...SOUTHWEST MISSOURI...

CITY           SKY/WX    TMP DP  RH WIND       PRES   REMARKS
SPRINGFIELD    SUNNY     61  45  55 S10       30.24R
JOPLIN         MOSUNNY   62  46  55 S9        30.21R

$$
MOZ032>034-039>042-045>050-055>058-069>072-191500-
...CENTRAL MISSOURI...

CITY           SKY/WX    TMP DP  RH WIND       PRES   REMARKS
COLUMBIA       SUNNY     59  44  57 SE9       30.26R
JEFFERSON CITY SUNNY     55  45  68 SE9       30.27R
ROLLA          SUNNY     60  43  53 SE8       30.26R
SEDALIA        SUNNY     62  45  53 S13       30.23R
WHITEMAN AFB   SUNNY     60  44  55 S10       30.21R
OSAGE BEACH    SUNNY     61  39  44 S6        30.27S

$$
MOZ051-052-059>065-191500-
...EAST CENTRAL MISSOURI...

CITY           SKY/WX    TMP DP  RH WIND       PRES   REMARKS
ST LOUIS INTL  MOSUNNY   58  40  51 E9        30.29S
SPIRIT OF STL  SUNNY     57  41  55 E5        30.29R
ST CHARLES     SUNNY     54  40  59 E9        30.29R

$$
MOZ072>076-082>087-097>100-106>115-191500-
...SOUTH CENTRAL AND SOUTHEAST MISSOURI...

CITY           SKY/WX    TMP DP  RH WIND       PRES   REMARKS
CAPE GIRARDEAU MOSUNNY   61  46  57 NE6       30.25S
FARMINGTON     SUNNY     57  45  62 E5        30.29S
POPLAR BLUFF   SUNNY     60  44  55 NE7       30.24S
WEST PLAINS    SUNNY     60  42  51 E8        30.28R

$$



USA.gov is the U.S. government's official web portal to all federal, state and local government web resources and services.